Regional Weather Roundup
Issued by NWS Charleston, SC

Current Version | Previous Version | Graphics & Text | Print | Product List | Glossary On
Versions: 1 2 3 4 5 6 7 8 9 10 11 12 13 14 15 16 17 18 19 20 21 22 23 24 25 26 27 28 29 30 31 32 33 34 35 36 37 38 39 40 41 42 43 44 45 46 47 48 49 50
000 ASUS42 KCHS 210827 RWRCHS Regional Weather Roundup National Weather Service Charleston SC 300 AM EST SUN JAN 21 2018 NOTE: "fair" indicates few or no clouds below 12,000 feet with no significant weather and/or obstructions to visibility. Not all stations are quality controlled. Use data with caution, especially dewpoint observations. SCZ027-030-031-034>040-042>050-210900- ...Southeast South Carolina... CITY SKY/WX TMP DP RH WIND PRES REMARKS N Charleston MOCLDY 48 30 49 SW3 30.23S Waterfront Prk NOT AVBL Mount Pleasant FAIR 46 34 61 CALM 30.24R Johns Island FAIR 50 30 46 W5 30.24R Pinopolis N/A 46 32 57 SW7 30.15F Moncks Corner FAIR 45 30 57 CALM 30.22F Summerville FAIR 41 32 70 CALM 30.23F Beaufort MCAS FAIR 48 34 58 SW3 30.24S Beaufort Arpt FAIR 48 32 53 CALM 30.24S Hilton Head Is FAIR 50 28 43 VRB3 30.25F Walterboro FAIR 41 34 75 CALM 30.25R Allendale FAIR 41 37 87 CALM 30.22S ...Southern Midlands and Pee Dee... CITY SKY/WX TMP DP RH WIND PRES REMARKS Georgetown FAIR 43 32 65 CALM 30.23F Kingstree FAIR 32 32 100 CALM 30.23S Orangeburg FAIR 37 34 89 CALM 30.22F Barnwell N/A 37 36 93 CALM 30.22F Aiken FAIR 34 32 93 CALM 30.25S Manning FAIR 34 32 93 MISG 30.23S Columbia FAIR 34 31 88 CALM 30.22S Sumter FAIR 37 30 75 CALM 30.20S Florence FAIR 34 30 85 CALM 30.23R Myrtle Beach FAIR 43 29 57 CALM 30.24F N Myrtle Beach FAIR 42 31 64 W3 30.23R $$ GAZ063-065-086>088-099>101-113>116-118-119-134>141-150-210900- ...Southeast Georgia... CITY SKY/WX TMP DP RH WIND PRES REMARKS Savannah Arpt FAIR 48 29 47 W3 30.25S Hunter AAF MOCLDY 48 29 46 CALM 30.22S Fort Stewart CLOUDY 47 33 59 CALM 30.22F Statesboro FAIR 51 29 43 W3 30.24S Sylvania FAIR 45 39 80 CALM 30.24S Claxton FAIR 42 38 88 CALM 30.24F ...CSRA, Central and far Southeast Georgia... CITY SKY/WX TMP DP RH WIND PRES REMARKS Thomson FAIR 35 33 90 CALM 30.27F Augusta-Bush FAIR 32 31 96 CALM 30.23S Augusta-Daniel FAIR 47 38 71 CALM 30.22F Swainsboro FAIR 43 41 93 CALM 30.24F FOG Vidalia FAIR 46 36 66 CALM 30.24F Eastman FAIR 44 35 71 CALM 30.27F Hazlehurst FAIR 49 31 49 CALM 30.23F Alma FAIR 44 34 67 N3 30.23F Waycross FAIR 45 35 68 CALM 30.26R Jesup FAIR 46 36 66 NW3 30.23F Baxley FAIR 43 34 70 CALM 30.24S Brunswick FAIR 46 34 61 W3 30.26R Saint Simons FAIR 48 37 65 SW5 30.25S $$ SCZ027-028-034-036>038-045-046-048>050-GAZ119-141-210900- ...Lake and Supplemental Coastal Observations... STATION/POSITION TIME TEMP WIND PRES WAVE SWELL AIR SEA DIR/SP/G HT/PER HT/PER/DIR (UTC) (F) (DEG/KT/KT) (MB) (FT/S) (FT/S/D) Winyah Bay 0745 49 290/ 6 1023.0F Lake Murray 0720 42 CALM 1022.4R ACE Basin NERRS 0745 46 CALM 1024.0S Fort Pulaski 0800 49 46 300/ 2/ 2 1024.2 Sapelo Island 0800 46 20/ 1 1024.0 $$ ANZ835-935-AMZ111-154-330-350-352-354-370-450-454-472-210900- ...C-MAN and Buoy Observations... STATION/POSITION TIME TEMP WIND PRES WAVE SWELL AIR SEA DIR/SP/G HT/PER HT/PER/DIR (UTC) (F) (DEG/KT/KT) (MB) (FT/S) (FT/S/D) Buoy 41004 0800 61 70 280/ 12/ 14 1023.1 Buoy 41008 0750 50 50 230/ 4/ 4 1024.2F 1/10 2/ 80/10 Folly Beach CMAN 0800 49 240/ 4/ 5 1024.2F Capers Nearshore 0808 46 49 260/ 4/ 8 1023.3F Fripp Nearshore 0808 44 45 260/ 4/ 6 1022.9S STATION/POSITION TIME TEMP WIND PRES WAVE SWELL AIR SEA DIR/SP/G HT/PER HT/PER/DIR (UTC) (F) (DEG/KT/KT) (MB) (FT/S) (FT/S/D) 5E St. Marys GA 0800 49 N/A 1/12 Frying Pan Buoy 0800 55 56 280/ 12/ 14 1023.4 Buoy 41025 0810 59 68 290/ 17/ 19 1022.4 Cape Lookout NC 0800 240/ 7/ 8 1023.0F Buoy 41002 0750 67 70 230/ 12/ 14 1023.4F 4/ 5 2/ 70/11 Buoy 41010 NOT AVBL St Augustine FL 0800 51 51 360/ 5/ 6 1024.2F $$

USA.gov is the U.S. government's official web portal to all federal, state and local government web resources and services.